Regional Weather Roundup
Issued by NWS Sterling, VA

Home | Current Version | Previous Version | Graphics & Text | Print | Product List | Glossary On
Versions: 1 2 3 4 5 6 7 8 9 10 11 12 13 14 15 16 17 18 19 20 21 22 23 24 25 26 27 28 29 30 31 32 33 34 35 36 37 38 39 40 41 42 43 44 45 46 47 48 49 50
000
ASUS41 KLWX 270411
RWRLWX

REGIONAL WEATHER ROUNDUP
NATIONAL WEATHER SERVICE BALTIMORE MD/WASHINGTON DC
1200 AM EDT MON APR 27 2015

Note: "FAIR" indicates few or no clouds below 12,000 feet
with no significant weather and/or obstructions to visibility.
 TC=TEMPERATURE CELSIUS

 * =Non NWS site. Station does not report precipitation (e.g. rain,
    snow, etc.), thunder, or fog.

DCZ001-MDZ009-015-VAZ040>042-051-053>054-270500-
WASHINGTON METRO

CITY           SKY/WX    TMP DP  RH WIND       PRES   REMARKS
WASHINGTON NAT PTCLDY    54  38  54 CALM      29.74R
DULLES         MOCLDY    50  38  63 N5        29.74R
ANDREWS AFB    CLEAR     42  38  84 CALM      29.72S
FT BELVOIR     PTCLDY    43  38  83 CALM      29.73S
QUANTICO       PTCLDY    46  39  76 NW9       29.74S
COLLEGE PARK*  CLEAR     43  37  81 CALM      29.73S
LEESBURG*      CLOUDY    48  37  66 N7        29.75S
MANASSAS*      PTCLDY    43  43 100 CALM      29.74S
GAITHERSBURG*  PTCLDY    43  34  70 CALM      29.78R

$$

MDZ006>007-011-014-270500-
BALTIMORE METRO

CITY           SKY/WX    TMP DP  RH WIND       PRES   REMARKS
BWI AIRPORT    CLEAR     41  33  73 NW5       29.74R
MD SCIENCE CTR   N/A     55  28  35 MISG      29.74R
MARTIN STATE   CLEAR     46  36  66 CALM      29.75R
ANNAPOLIS      CLEAR     48  41  76 NW3       29.73R
FORT MEADE*    CLEAR     39  36  87 CALM      29.76R

$$

MDZ012-015-019>023-270500-
MARYLAND EASTERN SHORE

CITY           SKY/WX    TMP DP  RH WIND       PRES   REMARKS
OCEAN CITY     FAIR      39  38  96 CALM      29.73S
SALISBURY      CLEAR     40  37  89 CALM      29.73S
BAY BRIDGE AP*   N/A    N/A N/A N/A S5        29.73S
CAMBRIDGE*     CLEAR     45  37  76 CALM      29.72F
EASTON*        CLEAR     49  40  70 CALM      29.76S

$$

MDZ017>025-270500-
SOUTHERN MARYLAND

CITY           SKY/WX    TMP DP  RH WIND       PRES   REMARKS
PATUXENT RIVER CLEAR     41  38  89 SW5       29.73S
ST INIGOES     CLEAR     42  40  92 E3        29.72F
LEONARDTOWN*   CLEAR     45  36  70 CALM      29.74S

$$

MDZ003>005-270500-
NORTH CENTRAL MARYLAND

CITY           SKY/WX    TMP DP  RH WIND       PRES   REMARKS
FREDERICK*     MOCLDY    43  32  65 NE6       29.79R
HAGERSTOWN APT CLEAR     50  28  42 NE8       29.76R
WESTMINSTER*   PTCLDY    48  32  53 N7        29.75R

$$

MDZ501>502-270500-
WESTERN MARYLAND

CITY           SKY/WX    TMP DP  RH WIND       PRES   REMARKS
OAKLAND*       CLEAR     37  30  75 N6        29.78S
CUMBERLAND*    CLEAR     52  28  40 N10G17    29.82R

$$

VAZ025>031-270500-
SHENANDOAH VALLEY

CITY           SKY/WX    TMP DP  RH WIND       PRES   REMARKS
WINCHESTER*    MOCLDY    48  30  49 NW6       29.75R
FRONT ROYAL*   CLOUDY    48  36  61 CALM      29.73S
LURAY*         MOCLDY    46  41  81 E3        29.74S
NEW MARKET*    CLOUDY    48  38  70 CALM      29.75S
STAUNTON*      PTCLDY    45  38  77 CALM      29.77F
WAYNESBORO*    FAIR      45  41  85 CALM      29.76S

$$

WVZ021-048>050-054>055-270500-
EASTERN WEST VIRGINIA PANHANDLE

CITY           SKY/WX    TMP DP  RH WIND       PRES   REMARKS
MARTINSBURG    MOCLDY    53  31  42 N13       29.75R
PETERSBURG*    CLEAR     43  34  70 CALM      29.79S

$$

VAZ036>039-050-270500-
CENTRAL FOOTHILLS

CITY           SKY/WX    TMP DP  RH WIND       PRES   REMARKS
CHARLOTTESVILL CLEAR     48  39  71 SW3       29.74F
CULPEPER*      PTCLDY    43  39  87 CALM      29.74S
ORANGE*        PTCLDY    43  41  93 CALM      29.75F
GORDONSVILLE*  FAIR      39  38  93 CALM      29.73F
WARRENTON*     FAIR      40  39  97 CALM      29.73F

$$

VAZ055>057-270500-
NORTH AND CENTRAL PIEDMONT

CITY           SKY/WX    TMP DP  RH WIND       PRES   REMARKS
FREDERICKSBRG* CLEAR     46  41  85 CALM      29.73S
STAFFORD*      CLEAR     38  32  77 CALM      29.77S

$$

NCZ024-NYZ072-PAZ021-071-VAZ022-071-270500-
OTHER REGIONAL OBSERVATIONS

CITY           SKY/WX    TMP DP  RH WIND       PRES   REMARKS
NEW YORK CITY  CLEAR     52  28  39 VRB5      29.71S
PHILADELPHIA   PTCLDY    53  29  39 N5        29.75R
PITTSBURGH     MOCLDY    45  31  58 NW7       29.84R
ROANOKE        PTCLDY    47  42  83 NW6       29.79F
RICHMOND       CLEAR     49  40  71 SW3       29.74F
RALEIGH        MOCLDY    46  44  93 CALM      29.78S

$$

ANZ530>537-270500-
MARINE OBSERVATIONS

STATION/POSITION TIME  TEMP    WIND        PRES
                       AIR SEA DIR/SP/G
                 (UTC) (F)     (DEG/KT/KT) (MB)
THOMAS PT LIGHT  0400   53 53  210/  5/  5 1007.2R
BALT KEY BRIDGE  0300   54     300/  3/  4 1006.3R
COVE POINT       0300   53     160/  6/  8 1007.2R
LEWISETTA        0300   51 58              1006.6R
SOLOMONS ISLAND  0300      56                N/A
PINEY POINT      0300          240/  5/  6   N/A

$$




USA.gov is the U.S. government's official web portal to all federal, state and local government web resources and services.